Scottsbluff, NE

9:12 PM MDT on October 20, 2019 (GMT -0600)
Heilig

Weather History for KBFF - September, 2019

Change the Weather History Date:

Saturday, September 21, 2019

  Actual Average Record
Temperature  
Mean Temperature 63 °F -  
Max Temperature 75 °F 72 °F 93 °F (1922)
Min Temperature 51 °F 42 °F 19 °F (1983)
Degree Days  
Heating Degree Days 2    
Growing Degree Days 13 (Base 50)    
Moisture  
Dew Point 39 °F    
Average Humidity 45    
Maximum Humidity 83    
Minimum Humidity 17    
Precipitation  
Precipitation 0.00 in - - ()
Sea Level Pressure  
Sea Level Pressure 29.88 in    
Wind  
Wind Speed 10 mph (WNW)    
Max Wind Speed 23 mph    
Max Gust Speed 32 mph    
Visibility 10 miles    
Events      
Averages and records for this station are not official NWS values.
T = Trace of Precipitation, MM = Missing Value Source: NWS Daily Summary

Daily Weather History Graph

Daily Weather History Graph

Search for Another Location

Airport or City:

Astronomy

Sep. 21, 2019 Rise Set
Actual Time 6:40 AM MDT 6:53 PM MDT
Civil Twilight 6:12 AM MDT 7:21 PM MDT
Nautical Twilight 5:40 AM MDT 7:54 PM MDT
Astronomical Twilight 5:06 AM MDT 8:27 PM MDT
Moon 11:27 PM MDT 1:55 PM MDT
Length of Visible Light 13h 08m
Length of Day
12h 13m
Waning Gibbous, 54% of the Moon is Illuminated
Sep 21
Waning Gibbous
Sep 21
Last Quarter
Sep 28
New
Oct 5
First Quarter
Oct 13
Full

Hourly Weather History & Observations

Time (MDT) Temp. Dew Point Humidity Pressure Visibility Wind Dir Wind Speed Gust Speed Precip Events Conditions
12:53 AM 54.0 °F 48.0 °F 80% 29.74 in 10.0 mi NW 3.5 mph - N/A   Clear
1:53 AM 55.0 °F 48.9 °F 80% 29.75 in 10.0 mi NW 3.5 mph - N/A   Clear
2:53 AM 54.0 °F 48.9 °F 83% 29.78 in 10.0 mi West 5.8 mph - N/A   Clear
3:53 AM 57.0 °F 39.9 °F 53% 29.78 in 10.0 mi West 13.8 mph - N/A   Clear
4:53 AM 53.1 °F 37.0 °F 55% 29.83 in 10.0 mi NW 8.1 mph - N/A   Clear
5:53 AM 51.1 °F 37.0 °F 59% 29.86 in 10.0 mi WNW 12.7 mph - N/A   Clear
6:53 AM 54.0 °F 34.0 °F 47% 29.88 in 10.0 mi West 19.6 mph - N/A   Clear
7:53 AM 57.9 °F 34.0 °F 41% 29.88 in 10.0 mi West 19.6 mph 29.9 mph N/A   Clear
8:53 AM 62.1 °F 34.0 °F 35% 29.88 in 10.0 mi West 23.0 mph 32.2 mph N/A   Clear
9:53 AM 64.9 °F 35.1 °F 33% 29.91 in 10.0 mi West 18.4 mph 27.6 mph N/A   Clear
10:53 AM 66.9 °F 37.0 °F 33% 29.90 in 10.0 mi West 15.0 mph - N/A   Clear
11:53 AM 70.0 °F 36.0 °F 29% 29.90 in 10.0 mi West 18.4 mph 27.6 mph N/A   Clear
12:53 PM 71.1 °F 36.0 °F 28% 29.89 in 10.0 mi West 17.3 mph 27.6 mph N/A   Clear
1:53 PM 73.9 °F 35.1 °F 24% 29.88 in 10.0 mi West 11.5 mph 23.0 mph N/A   Clear
2:53 PM 73.9 °F 34.0 °F 23% 29.87 in 10.0 mi NW 13.8 mph - N/A   Clear
3:53 PM 75.0 °F 34.0 °F 22% 29.85 in 10.0 mi WNW 15.0 mph 20.7 mph N/A   Clear
4:53 PM 73.9 °F 32.0 °F 21% 29.85 in 10.0 mi WNW 13.8 mph - N/A   Clear
5:53 PM 70.0 °F 35.1 °F 28% 29.89 in 10.0 mi NNW 8.1 mph - N/A   Clear
6:53 PM 64.0 °F 39.0 °F 40% 29.92 in 10.0 mi NNE 5.8 mph - N/A   Mostly Cloudy
7:53 PM 62.1 °F 41.0 °F 46% 29.98 in 10.0 mi NE 9.2 mph - N/A   Overcast
8:53 PM 59.0 °F 43.0 °F 55% 29.98 in 10.0 mi North 5.8 mph - 0.00 in   Overcast
9:53 PM 57.9 °F 43.0 °F 58% 30.01 in 10.0 mi Calm Calm - N/A   Clear
10:53 PM 55.9 °F 44.1 °F 64% 29.97 in 10.0 mi East 5.8 mph - N/A   Mostly Cloudy
11:53 PM 53.1 °F 45.0 °F 74% 29.96 in 10.0 mi NE 5.8 mph - N/A   Clear